Home > Time Zones > World Clock > Weather > Norway > Gran > Past weeks

Flag for Norway Weather past 2 weeks in Gran, Norway

Now
43 °F

Light rain. Passing clouds.


Feels Like: 37 °F
Forecast: 32 / 46 °F
Wind: 9 mph from Northeast

Location: Oslo Gardermoen Airport

Current Time: Oct 22, 2014 at 2:26:33 AM

Latest Report: Oct 22, 2014 at 1:50 AM


Visibility: N/A

Pressure: 29.62 "Hg

Humidity: 93%

Dew point: 41 °F

Location of GranLocation

Historic Weather in Gran — Graph

°F

Gran temperature yesterday

Maximum temperature yesterday: 48 °F (at 4:50 AM)
Minimum temperature yesterday: 43 °F (at 12:20 AM)
Average temperature yesterday: 44 °F

Past Weeks' High & Low Weather Summary

 TemperatureHumidityPressure
High57 °F (Oct 20, 2:50 PM)100% (Oct 8, 3:20 PM)30.36 "Hg (Oct 8, 3:20 PM)
Low30 °F (Oct 13, 6:20 AM)59% (Oct 20, 3:50 PM)29.27 "Hg (Oct 20, 2:50 AM)
Average44 °F92%29.76 "Hg
* Reported Oct 7 1:20 AM — Oct 22 1:20 AM, Gran, Weather by CustomWeather, © 2014

Note: Actual official high and low records may vary slightly from our data, if they occured in-between our weather recording intervals... More about our weather records

Advertising

Gran weather history for previous 24 hours

 ConditionsComfort  
Time TempWeatherWind HumidityBarometerVisibility
1:20 AM
Oct 22
43 °FLight rain. Passing clouds.10 mph93%29.59 "HgN/A
12:50 AM43 °FLight rain. Partly cloudy.9 mph93%29.59 "Hg6 mi
12:20 AM43 °FLight rain. Passing clouds.10 mph93%29.56 "Hg4 mi
11:50 PM
Oct 21
43 °FLight rain. Passing clouds.9 mph93%29.56 "Hg5 mi
11:20 PM43 °FLight rain. Passing clouds.8 mph93%29.56 "HgN/A
10:50 PM43 °FPassing clouds.9 mph93%29.56 "HgN/A
10:20 PM43 °FPassing clouds.8 mph93%29.53 "HgN/A
9:50 PM43 °FPassing clouds.8 mph93%29.53 "HgN/A
9:20 PM43 °FPassing clouds.8 mph93%29.53 "HgN/A
8:50 PM43 °FPassing clouds.8 mph93%29.53 "HgN/A
8:20 PM43 °FPassing clouds.9 mph93%29.53 "HgN/A
7:50 PM43 °FPassing clouds.8 mph93%29.53 "HgN/A
7:20 PM43 °FPassing clouds.7 mph93%29.50 "HgN/A
6:50 PM43 °FLight rain. Passing clouds.9 mph93%29.50 "HgN/A
6:20 PM43 °FPartly sunny.10 mph93%29.50 "HgN/A
5:50 PM43 °FPartly sunny.9 mph100%29.50 "HgN/A
5:20 PM45 °FPartly sunny.10 mph93%29.50 "HgN/A
4:50 PM45 °FDrizzle. Partly sunny.10 mph93%29.50 "Hg6 mi
4:20 PM45 °FDrizzle. Fog.12 mph93%29.50 "Hg2 mi
3:50 PM45 °FMixture of precip. Partly sunny.10 mph93%29.50 "Hg6 mi
3:20 PM45 °FDrizzle. Partly sunny.10 mph93%29.50 "Hg6 mi
2:50 PM45 °FDrizzle. Fog.12 mph93%29.50 "Hg2 mi
2:20 PM46 °FPartly sunny.9 mph87%29.50 "HgN/A
1:50 PM46 °FBroken clouds.8 mph87%29.50 "HgN/A
1:20 PM46 °FBroken clouds.10 mph87%29.50 "HgN/A
12:50 PM45 °FLow clouds.9 mph93%29.50 "HgN/A
12:20 PM45 °FPartly sunny.10 mph93%29.50 "HgN/A
11:50 AM45 °FLow clouds.12 mph93%29.53 "HgN/A
11:20 AM45 °FDrizzle. Low clouds.8 mph93%29.53 "Hg6 mi
10:50 AM45 °FDrizzle. Low clouds.10 mph93%29.53 "Hg3 mi
10:20 AM45 °FLow clouds.9 mph93%29.53 "Hg5 mi
9:50 AM45 °FDrizzle. Low clouds.7 mph93%29.53 "Hg4 mi
9:20 AM45 °FDrizzle. Low clouds.6 mph93%29.53 "Hg4 mi
8:50 AM45 °FDrizzle. Low clouds.7 mph93%29.53 "Hg4 mi
8:20 AM45 °FLight rain. Low clouds.7 mph100%29.53 "HgN/A
7:50 AM45 °FDrizzle. Low clouds.6 mph100%29.53 "Hg5 mi
7:20 AM45 °FLow clouds.7 mph100%29.50 "Hg6 mi
6:50 AM45 °FDrizzle. Low clouds.8 mph100%29.50 "Hg6 mi
6:20 AM46 °FDrizzle. Low clouds.7 mph93%29.53 "Hg6 mi
5:50 AM46 °FPartly cloudy.9 mph93%29.53 "Hg5 mi
4:50 AM48 °FDrizzle. Low clouds.6 mph94%29.53 "Hg4 mi
4:20 AM46 °FDrizzle. Fog.3 mph100%29.53 "Hg2 mi
3:50 AM46 °FFog.3 mph100%29.53 "Hg2 mi
3:20 AM46 °FDrizzle. Fog.2 mph100%29.53 "Hg2 mi
2:50 AM46 °FFog.5 mph100%29.53 "Hg3 mi
2:20 AM45 °FLow clouds.3 mph100%29.53 "HgN/A
Weather by CustomWeather, © 2014

See weather overviewHow to use our weather pages